| time (UTC) | temp F | wind direction | speed MPH | gust MPH | rain 1hr in | rain 24hr in | rain mn in | humidity % | barometer mb |
| 20260503054904 | 38 | 145 | 0.0 | 0.0 | 0.00 | 0.00 | 0.00 | 84 | 1009.4 |
| 20260503052901 | 40 | 145 | 0.0 | 0.0 | 0.00 | 0.00 | 0.00 | 81 | 1009.6 |
| 20260503051401 | 41 | 145 | 0.0 | 0.0 | 0.00 | 0.00 | 0.00 | 76 | 1009.6 |
| 20260503045413 | 41 | 145 | 0.0 | 2.0 | 0.00 | 0.00 | 0.00 | 75 | 1009.6 |
| 20260503043859 | 39 | 144 | 0.0 | 2.0 | 0.00 | 0.00 | 0.00 | 80 | 1009.6 |
| 20260503041857 | 40 | 144 | 0.0 | 2.0 | 0.00 | 0.00 | 0.00 | 76 | 1009.7 |
| 20260503040356 | 41 | 144 | 0.0 | 0.0 | 0.00 | 0.00 | 0.00 | 72 | 1009.7 |
| 20260503034409 | 44 | 144 | 0.0 | 2.0 | 0.00 | 0.00 | 0.00 | 68 | 1009.9 |
| 20260503032406 | 45 | 143 | 0.0 | 3.0 | 0.00 | 0.00 | 0.00 | 67 | 1010.0 |
| 20260503030904 | 45 | 101 | 0.0 | 0.0 | 0.00 | 0.00 | 0.00 | 70 | 1010.0 |
| 20260503024907 | 46 | 101 | 0.0 | 3.0 | 0.00 | 0.00 | 0.00 | 64 | 1010.2 |
| 20260503023359 | 47 | 5 | 1.0 | 2.0 | 0.00 | 0.00 | 0.00 | 61 | 1010.3 |
| 20260503021403 | 50 | 5 | 1.0 | 2.0 | 0.00 | 0.00 | 0.00 | 60 | 1010.4 |
| 20260503015854 | 53 | 5 | 2.0 | 3.0 | 0.00 | 0.00 | 0.00 | 55 | 1010.5 |
| 20260503013912 | 56 | 360 | 2.0 | 5.0 | 0.00 | 0.00 | 0.00 | 48 | 1010.5 |
| 20260503012346 | 57 | 298 | 4.0 | 9.0 | 0.00 | 0.00 | 0.00 | 47 | 1010.7 |
| 20260503010401 | 57 | 278 | 6.0 | 12.0 | 0.00 | 0.00 | 0.00 | 45 | 1010.8 |
| 20260503004406 | 58 | 290 | 7.0 | 12.0 | 0.00 | 0.00 | 0.00 | 45 | 1010.8 |
| 20260503002900 | 58 | 301 | 8.0 | 15.0 | 0.00 | 0.00 | 0.00 | 43 | 1010.9 |
| 20260503001354 | 59 | 265 | 11.0 | 18.0 | 0.00 | 0.00 | 0.00 | 42 | 1011.1 |
| 20260502234851 | 59 | 273 | 10.0 | 19.0 | 0.00 | 0.00 | 0.00 | 42 | 1011.3 |
| 20260502232854 | 59 | 259 | 10.0 | 19.0 | 0.00 | 0.00 | 0.00 | 43 | 1011.2 |
| 20260502230909 | 59 | 255 | 10.0 | 19.0 | 0.00 | 0.00 | 0.00 | 42 | 1011.3 |
| 20260502224900 | 59 | 287 | 13.0 | 21.0 | 0.00 | 0.00 | 0.00 | 42 | 1011.3 |
| 20260502222906 | 59 | 298 | 13.0 | 20.0 | 0.00 | 0.00 | 0.00 | 42 | 1011.5 |
| 20260502221354 | 59 | 284 | 13.0 | 23.0 | 0.00 | 0.00 | 0.00 | 41 | 1011.4 |
| 20260502215850 | 60 | 288 | 13.0 | 22.0 | 0.00 | 0.00 | 0.00 | 40 | 1011.5 |
| 20260502213907 | 59 | 295 | 12.0 | 29.0 | 0.00 | 0.00 | 0.00 | 41 | 1011.7 |
| 20260502212403 | 59 | 294 | 15.0 | 24.0 | 0.00 | 0.00 | 0.00 | 40 | 1011.7 |
| 20260502210406 | 60 | 274 | 16.0 | 26.0 | 0.00 | 0.00 | 0.00 | 40 | 1011.6 |
| 20260502204856 | 59 | 282 | 16.0 | 22.0 | 0.00 | 0.00 | 0.00 | 40 | 1011.6 |
| 20260502202904 | 60 | 5 | 15.0 | 25.0 | 0.00 | 0.00 | 0.00 | 36 | 1011.5 |
| 20260502201404 | 60 | 300 | 14.0 | 23.0 | 0.00 | 0.00 | 0.00 | 36 | 1011.6 |
| 20260502195401 | 60 | 24 | 12.0 | 24.0 | 0.00 | 0.00 | 0.00 | 38 | 1011.7 |
| 20260502193857 | 60 | 288 | 17.0 | 24.0 | 0.00 | 0.00 | 0.00 | 39 | 1011.6 |
| 20260502191856 | 60 | 5 | 17.0 | 26.0 | 0.00 | 0.00 | 0.00 | 39 | 1011.7 |
| 20260502185912 | 60 | 301 | 18.0 | 24.0 | 0.00 | 0.00 | 0.00 | 40 | 1011.5 |
| 20260502184400 | 60 | 18 | 18.0 | 25.0 | 0.00 | 0.00 | 0.00 | 40 | 1011.3 |
| 20260502182859 | 59 | 294 | 17.0 | 28.0 | 0.00 | 0.00 | 0.00 | 41 | 1011.7 |
| 20260502180916 | 59 | 300 | 17.0 | 24.0 | 0.00 | 0.00 | 0.00 | 41 | 1011.4 |
| 20260502170352 | 58 | 297 | 17.0 | 28.0 | 0.00 | 0.00 | 0.00 | 54 | 1011.2 |
| 20260502162856 | 56 | 302 | 16.0 | 23.0 | 0.00 | 0.00 | 0.00 | 58 | 1011.1 |
| 20260502160912 | 56 | 10 | 13.0 | 20.0 | 0.00 | 0.00 | 0.00 | 58 | 1010.9 |
| 20260502151356 | 54 | 288 | 14.0 | 24.0 | 0.00 | 0.00 | 0.00 | 64 | 1010.4 |
| 20260502122404 | 44 | 315 | 17.0 | 24.0 | 0.00 | 0.00 | 0.00 | 75 | 1007.6 |
| 20260502120408 | 42 | 311 | 16.0 | 22.0 | 0.00 | 0.00 | 0.00 | 77 | 1007.3 |
| 20260502114853 | 43 | 306 | 14.0 | 22.0 | 0.00 | 0.00 | 0.00 | 77 | 1007.4 |
| 20260502113348 | 43 | 306 | 11.0 | 19.0 | 0.00 | 0.00 | 0.00 | 76 | 1007.4 |
| 20260502111409 | 44 | 273 | 10.0 | 16.0 | 0.00 | 0.00 | 0.00 | 76 | 1007.2 |
| 20260502105857 | 45 | 274 | 9.0 | 12.0 | 0.00 | 0.00 | 0.00 | 75 | 1007.2 |
| 20260502103914 | 46 | 269 | 7.0 | 10.0 | 0.00 | 0.00 | 0.00 | 73 | 1007.0 |
| 20260502101850 | 47 | 273 | 6.0 | 10.0 | 0.00 | 0.00 | 0.00 | 70 | 1007.1 |
| 20260502090852 | 43 | 249 | 0.0 | 2.0 | 0.00 | 0.00 | 0.00 | 71 | 1006.7 |
| 20260502070858 | 49 | 150 | 3.0 | 7.0 | 0.00 | 0.00 | 0.00 | 54 | 1007.2 |